St. Joseph, KS

7:16 PM CST on November 22, 2019 (GMT -0600)
Rosecrans Memorial

Weather History for KSTJ - September, 2019

Change the Weather History Date:

Friday, September 27, 2019

  Actual Average Record
Temperature  
Mean Temperature 78 °F 62 °F  
Max Temperature 91 °F 75 °F 93 °F (1956)
Min Temperature 64 °F 49 °F 33 °F (1942)
Degree Days  
Heating Degree Days 0 5  
Month to date heating degree days 1 59  
Since 1 July heating degree days 1 64  
Cooling Degree Days 13 2  
Month to date cooling degree days 279 114  
Year to date cooling degree days 1423 1191  
Growing Degree Days 28 (Base 50)    
Moisture  
Dew Point 66 °F    
Average Humidity 69    
Maximum Humidity 87    
Minimum Humidity 51    
Precipitation  
Precipitation 0.09 in 0.08 in 1.68 in (1999)
Month to date precipitation 3.56 3.16  
Year to date precipitation 32.83 29.46  
Sea Level Pressure  
Sea Level Pressure 29.66 in    
Wind  
Wind Speed 13 mph (SSW)    
Max Wind Speed 21 mph    
Max Gust Speed 33 mph    
Visibility 9 miles    
Events Rain , Thunderstorm    
T = Trace of Precipitation, MM = Missing Value Source: NWS Daily Summary

Daily Weather History Graph

Daily Weather History Graph

Search for Another Location

Airport or City:

Astronomy

Sep. 27, 2019 Rise Set
Actual Time 7:11 AM CDT 7:08 PM CDT
Civil Twilight 6:44 AM CDT 7:35 PM CDT
Nautical Twilight 6:13 AM CDT 8:07 PM CDT
Astronomical Twilight 5:41 AM CDT 8:38 PM CDT
Moon 5:34 AM CDT (9/27) 6:59 PM CDT (9/27)
Length of Visible Light 12h 50m
Length of Day
11h 57m
Waning Crescent, 2% of the Moon is Illuminated
Sep 27
Waning Crescent
Sep 28
New
Oct 5
First Quarter
Oct 13
Full
Oct 21
Last Quarter

Hourly Weather History & Observations

Time (CDT) Temp. Heat Index Dew Point Humidity Pressure Visibility Wind Dir Wind Speed Gust Speed Precip Events Conditions
12:53 AM 69.1 °F - 57.9 °F 68% 29.72 in 10.0 mi SSE 10.4 mph - N/A   Overcast
1:53 AM 71.1 °F - 61.0 °F 70% 29.69 in 10.0 mi South 11.5 mph - N/A   Overcast
2:53 AM 72.0 °F - 63.0 °F 73% 29.66 in 10.0 mi South 10.4 mph 20.7 mph N/A   Overcast
3:53 AM 71.1 °F - 64.0 °F 78% 29.64 in 10.0 mi South 12.7 mph 20.7 mph N/A   Partly Cloudy
4:53 AM 71.1 °F - 64.9 °F 81% 29.63 in 10.0 mi South 12.7 mph - N/A   Clear
5:53 AM 71.1 °F - 64.9 °F 81% 29.62 in 10.0 mi South 11.5 mph 26.5 mph N/A   Partly Cloudy
7:53 AM 71.1 °F - 66.0 °F 84% 29.59 in 10.0 mi South 11.5 mph - N/A   Clear
8:53 AM 75.0 °F - 66.9 °F 76% 29.60 in 10.0 mi South 13.8 mph 18.4 mph N/A   Clear
9:53 AM 79.0 °F - 66.9 °F 66% 29.60 in 10.0 mi SSW 16.1 mph 21.9 mph N/A   Clear
10:53 AM 82.9 °F 85.8 °F 68.0 °F 60% 29.59 in 10.0 mi SW 13.8 mph - N/A   Clear
11:33 AM 84.9 °F 87.6 °F 66.9 °F 55% 29.61 in 1.8 mi SW 17.3 mph 29.9 mph N/A   Haze
11:53 AM 84.9 °F 87.6 °F 66.9 °F 55% 29.58 in 1.2 mi SW 18.4 mph 28.8 mph N/A   Haze
12:53 PM 86.0 °F 88.8 °F 66.9 °F 53% 29.58 in 1.2 mi SW 17.3 mph 25.3 mph N/A   Haze
12:59 PM 86.0 °F 89.4 °F 68.0 °F 55% 29.60 in 10.0 mi SW 13.8 mph 25.3 mph N/A   Mostly Cloudy
1:53 PM 86.0 °F 88.8 °F 66.9 °F 53% 29.57 in 10.0 mi SW 9.2 mph 23.0 mph N/A   Mostly Cloudy
2:07 PM 88.0 °F 90.7 °F 66.9 °F 49% 29.60 in 10.0 mi SW 12.7 mph - N/A   Mostly Cloudy
2:53 PM 88.0 °F 91.4 °F 68.0 °F 51% 29.57 in 10.0 mi SSW 12.7 mph - N/A   Mostly Cloudy
3:53 PM 88.0 °F 92.1 °F 69.1 °F 53% 29.56 in 10.0 mi SSW 5.8 mph - N/A   Mostly Cloudy
4:00 PM 88.0 °F 91.4 °F 68.0 °F 51% 29.59 in 1.0 mi SW 6.9 mph - N/A   Haze
4:07 PM 89.1 °F 92.9 °F 68.0 °F 50% 29.59 in 10.0 mi SW 8.1 mph - N/A   Mostly Cloudy
4:53 PM 84.9 °F 89.4 °F 70.0 °F 61% 29.58 in 10.0 mi North 15.0 mph 25.3 mph N/A   Mostly Cloudy
5:05 PM 82.9 °F 87.0 °F 70.0 °F 65% 29.61 in 10.0 mi North 12.7 mph 24.2 mph N/A   Mostly Cloudy
5:53 PM 81.0 °F 84.4 °F 70.0 °F 69% 29.61 in 10.0 mi North 12.7 mph - N/A   Clear
6:53 PM 77.0 °F - 69.1 °F 76% 29.61 in 10.0 mi North 16.1 mph - N/A   Clear
7:53 PM 75.0 °F - 68.0 °F 79% 29.64 in 10.0 mi North 15.0 mph 21.9 mph N/A   Overcast
8:18 PM 75.0 °F - 66.0 °F 73% 29.69 in 10.0 mi NNE 13.8 mph 23.0 mph N/A   Overcast
8:44 PM 73.9 °F - 66.0 °F 76% 29.72 in 10.0 mi NE 11.5 mph - N/A   Overcast
8:53 PM 73.9 °F - 66.0 °F 76% 29.70 in 10.0 mi NE 13.8 mph - N/A   Overcast
9:14 PM 73.0 °F - 64.9 °F 76% 29.72 in 10.0 mi NNE 10.4 mph - N/A   Overcast
9:21 PM 73.0 °F - 64.9 °F 76% 29.72 in 10.0 mi NNE 12.7 mph - N/A   Overcast
9:33 PM 73.0 °F - 64.9 °F 76% 29.72 in 10.0 mi NNE 10.4 mph - N/A   Mostly Cloudy
9:53 PM 72.0 °F - 64.9 °F 78% 29.72 in 10.0 mi NNE 11.5 mph - N/A   Mostly Cloudy
10:38 PM 71.1 °F - 64.0 °F 78% 29.75 in 10.0 mi NNE 15.0 mph - N/A   Mostly Cloudy
10:53 PM 71.1 °F - 64.0 °F 78% 29.75 in 10.0 mi North 15.0 mph 21.9 mph N/A   Overcast
11:21 PM 69.1 °F - 61.0 °F 75% 29.82 in 5.0 mi NNE 10.4 mph - 0.07 in Rain , Thunderstorm Light Thunderstorms and Rain
11:39 PM 68.0 °F - 61.0 °F 78% 29.83 in 10.0 mi Variable 4.6 mph 18.4 mph 0.09 in Rain , Thunderstorm Light Rain
11:46 PM 66.9 °F - 61.0 °F 81% 29.83 in 10.0 mi East 9.2 mph - 0.09 in   Overcast
11:53 PM 66.9 °F - 62.1 °F 84% 29.80 in 10.0 mi ENE 8.1 mph - 0.09 in   Overcast